Regional Weather Roundup
Issued by NWS San Angelo, TX

Home | Current Version | Previous Version | Text Only | Print | Product List | Glossary Off
Versions: 1 2 3 4 5 6 7 8 9 10 11 12 13 14 15 16 17 18 19 20 21 22 23 24 25 26 27 28 29 30 31 32 33 34 35 36 37 38 39 40 41 42 43 44 45 46 47 48 49 50

000
ASUS44 KSJT 010510
RWRSJT
WEST CENTRAL TEXAS REGIONAL WEATHER ROUNDUP
NATIONAL WEATHER SERVICE SAN ANGELO TX
1200 AM CDT WED APR 01 2015

NOTE: "FAIR" INDICATES FEW OR NO CLOUDS BELOW 12,000 FEET WITH NO
SIGNIFICANT WEATHER AND/OR OBSTRUCTIONS TO VISIBILITY.

TXZ049-054-064>066-071>073-076>078-098-099-113-114-127-128-139-140-
154-155-168>170-010600
...LOCATIONS ACROSS WEST CENTRAL TEXAS...

CITY           SKY/WX    TMP DP  RH WIND       PRES   REMARKS
SAN ANGELO     CLOUDY    70  61  73 S15       29.93F
ABILENE        MOCLDY    70  52  52 S7        29.90R
DYESS AFB      CLOUDY    69  56  64 S12       29.88R
JUNCTION       MOCLDY    68  61  78 S13       29.97S
SWEETWATER     MOCLDY    69  60  74 S13       29.93S
BROWNWOOD      PTCLDY    66  59  77 S9        29.92S
COLEMAN        PTCLDY    68  60  76 S9        29.93R
SONORA         CLOUDY    66  61  82 CALM      30.05S
OZONA          FAIR      64  59  82 S9        30.02S
BRADY          CLEAR     66  61  82 S12       29.94S
$$

TEXAS PANHANDLE/OKLAHOMA PANHANDLE

CITY           SKY/WX    TMP DP  RH WIND       PRES   REMARKS
AMARILLO       CLEAR     59  38  45 S10       29.88S
BORGER         CLEAR     66  39  37 SE9       29.86F
CANADIAN       CLEAR     64  46  51 SE8       29.87R
DALHART        CLEAR     58  34  40 SE6       29.87F
DUMAS          CLEAR     59  34  39 S12       29.86S
GUYMON         NOT AVBL
HEREFORD       CLEAR     63  41  45 SW14      29.91S
PAMPA          PTCLDY    60  46  58 S18G24    29.91R
PERRYTON         N/A     64  46  52 SE15      29.87S
$$

SOUTHERN PANHANDLE/SOUTH PLAINS/ROLLING PLAINS

CITY           SKY/WX    TMP DP  RH WIND       PRES   REMARKS
LUBBOCK        CLOUDY    61  45  55 S9        29.90S
SNYDER         CLOUDY    66  51  57 SE7       29.91S
CHILDRESS      PTCLDY    63  51  65 E9        29.86F
SEMINOLE       MOCLDY    60  44  55 CALM      29.95F
$$

PERMIAN BASIN

CITY           SKY/WX    TMP DP  RH WIND       PRES   REMARKS
MIDLAND        CLOUDY    70  48  45 S10       29.94S
ODESSA         CLOUDY    69  45  41 S9        29.95S
WINK           CLOUDY    66  46  48 S9        29.92F
$$

FAR WEST/SOUTHWEST MOUNTAINS/TRANS PECOS

CITY           SKY/WX    TMP DP  RH WIND       PRES   REMARKS
ALPINE         CLOUDY    61  43  51 SW6       30.13R
DRYDEN           N/A     68  63  84 E12       29.96S
EL PASO        PTCLDY    65  43  44 S10       30.00S
FORT STOCKTON  CLOUDY    65  46  50 SW9       29.98S
GUADALUPE PASS MOCLDY    58  40  51 W25G31    30.07F
MARFA          CLOUDY    54  43  66 S3        30.11S
PECOS          CLOUDY    66  45  45 S7        29.93S
$$

DALLAS/FORT WORTH METROPLEX

CITY           SKY/WX    TMP DP  RH WIND       PRES   REMARKS
DFW AIRPORT    CLOUDY    71  61  70 S13       29.90R
FTW MEACHAM    MOCLDY    72  61  68 S9        29.89S
DAL-EXECUTIVE  PTCLDY    70  61  73 S7        29.91S
GRAND PRAIRIE  NOT AVBL
ADDISON        MOCLDY    73  60  65 S9        29.92S
MESQUITE       PTCLDY    67  59  74 S7        29.93R
LANCASTER      PTCLDY    67  58  73 S6        29.93S
$$

NORTH CENTRAL TEXAS

CITY           SKY/WX    TMP DP  RH WIND       PRES   REMARKS
SHRMAN/DENISON CLOUDY    72  63  73 SE7       29.93S
GAINESVILLE    CLOUDY    69  60  73 SE6       29.94R
BRIDGEPORT     CLOUDY    71  62  73 S8        29.90S
DENTON         CLOUDY    71  61  70 S14       29.90S
WAXAHACHIE     PTCLDY    65  61  86 S7        29.94R
GRANBURY         N/A     71  62  72 SE9       29.91S
$$

WESTERN NORTH TEXAS

CITY           SKY/WX    TMP DP  RH WIND       PRES   REMARKS
WICHITA FALLS  CLOUDY    64  56  75 N23       29.90F
VERNON           N/A    N/A N/A N/A MISG        N/A
BRECKENRIDGE   MOCLDY    74  57  55 S12       29.87R
COMANCHE       PTCLDY    69  61  75 S15G21    29.91R
$$

CENTRAL AND SOUTH CENTRAL TEXAS

CITY           SKY/WX    TMP DP  RH WIND       PRES   REMARKS
AUSTIN/BERGSTM CLOUDY    69  67  93 S13       29.95S
WACO           CLEAR     66  61  84 S9        29.91S
HILLSBORO      CLEAR     67  60  79 S7        29.92S
TEMPLE         PTCLDY    66  59  77 S13       29.91F
KILLEEN-GRAY   CLEAR     67  62  83 S12       29.92F
FORT HOOD      CLEAR     69  62  80 S12       29.92F
GEORGETOWN     MOCLDY    72  64  78 S13G21    29.93F
LAGO VISTA     CLOUDY    69  63  81 S9        29.97S
SAN MARCOS     CLOUDY    70  64  83 S14       29.98S
NEW BRAUNFELS  CLOUDY    70  67  90 S10       29.96F
RANDOLPH AFB   CLOUDY    68  68 100 S9        29.97F
SAN ANTONIO    CLOUDY    70  67  90 S9        29.98F
STINSON        MOCLDY    67  66  97 SE5       29.96F FOG
PLEASANTON     NOT AVBL
LA GRANGE      MOCLDY    71  69  92 S8        29.96S
GIDDINGS       MOCLDY    69  65  88 S8        30.00S
$$

EAST TEXAS

CITY           SKY/WX    TMP DP  RH WIND       PRES   REMARKS
PARIS          NOT AVBL
CLARKSVILLE    NOT AVBL
TYLER          CLEAR     65  57  75 E5        29.95R
LONGVIEW       CLEAR     62  57  83 CALM      29.95S
PALESTINE      CLEAR     68  62  79 S7        29.95S
NACOGDOCHES    PTCLDY    66  61  82 S6        29.97S
$$

TEXAS HILL COUNTRY AND EDWARDS PLATEAU

CITY           SKY/WX    TMP DP  RH WIND       PRES   REMARKS
LLANO          PTCLDY    66  61  82 CALM      29.98F
HORSESHOE BAY  FAIR      69  63  81 S3        29.96S
KERRVILLE      PTCLDY    64  61  92 SE5       29.99F
FREDERICKSBRG  MOCLDY    64  62  91 S3        29.99F
ROCKSPRINGS    NOT AVBL
HONDO          MOCLDY    66  63  90 MISG      29.98F
UVALDE         MOCLDY    66  64  91 NE3       29.96S
DEL RIO        CLOUDY    69  63  81 E8        29.93S
$$

SOUTHEAST TEXAS

CITY           SKY/WX    TMP DP  RH WIND       PRES   REMARKS
COLLEGE STN    PTCLDY    71  66  84 S9        29.95F
CALDWELL       MOCLDY    68  68 100 S8        29.98F
CROCKETT       PTCLDY    70  66  88 S7        29.98F
BRENHAM        PTCLDY    71  68  89 S9        29.97F
HUNTSVILLE     CLOUDY    71  65  81 S16G23    29.97F
CONROE         CLOUDY    71  65  81 S10G20    29.99S
HOUSTON BUSH   CLOUDY    72  67  84 S8        29.98F
HOUSTON HOBBY  CLOUDY    70  68  93 S6        29.99F
PERLAND        PTCLDY    71  67  87 S7        30.01F
WHARTON        PTCLDY    67  66  96 S7        29.99F
$$

THE UPPER TEXAS COAST

CITY           SKY/WX    TMP DP  RH WIND       PRES   REMARKS
ORANGE         CLOUDY    70  65  85 S8        30.02F
PORT ARTHUR    CLOUDY    70  67  90 S8        30.00F
GALVESTON      MOCLDY    70  69  97 S13       30.02R
ANGLETON       PTCLDY    68  67  96 S9        29.99F
BAY CITY       MOCLDY    70  69  98 S8        29.98F
$$

TEXAS COASTAL BEND, RIO GRANDE PLAINS DEEP SOUTH TEXAS

CITY           SKY/WX    TMP DP  RH WIND       PRES   REMARKS
VICTORIA       CLOUDY    72  69  90 S13       29.99R
BEEVILLE       CLOUDY    69  69  99 SE5       29.97F
ROCKPORT       PTCLDY    71  67  87 S13G21    29.97R
PORT ARANSAS   MOCLDY    68  67  98 SE8       29.94F
PORT LAVACA    PTCLDY    69  67  93 S6        29.99S
CORPUS CHRISTI MOCLDY    71  67  87 S15       29.96R
KINGSVILLE NAS CLOUDY    72  70  93 S12       29.95F
COTULLA        CLEAR     69  66  90 E9        29.93F
LAREDO         MOCLDY    73  65  76 SE14      29.94F
BROWNSVILLE    PTCLDY    71  69  93 SE12      29.99F
PORT ISABEL    PTCLDY    70  68  93 SE10      29.98F
HEBBRONVILLE     N/A     71  66  84 SE10      29.96S
MCALLEN        CLOUDY    73  68  84 SE9       29.97F
WESLACO        CLOUDY    70  67  89 SE8       29.97F
FALFURRIAS     CLOUDY    71  67  88 SE10      29.94S
EDINBURG       CLOUDY    72  67  85 SE8       29.97F
$$


USA.gov is the U.S. government's official web portal to all federal, state and local government web resources and services.